Time,TemperatureF,DewpointF,PressureIn,WindDirection,WindDirectionDegrees,WindSpeedMPH,WindSpeedGustMPH,Humidity,HourlyPrecipIn,Conditions,Clouds,dailyrainin,SoftwareType,DateUTC
2013-03-21 00:00:00,25.1,16.0,30.04,West,266,3.0,6.0,68,0.00,,,0.00,VWS V14.01,2013-03-21 04:00:00,
2013-03-21 00:05:00,25.0,15.9,30.04,WSW,243,4.5,4.5,68,0.00,,,0.00,VWS V14.01,2013-03-21 04:05:00,
2013-03-21 00:10:00,25.0,16.3,30.04,West,275,6.0,6.0,69,0.00,,,0.00,VWS V14.01,2013-03-21 04:10:00,
2013-03-21 00:15:00,25.0,16.3,30.03,West,267,3.0,4.5,69,0.00,,,0.00,VWS V14.01,2013-03-21 04:15:00,
2013-03-21 00:20:00,25.0,16.3,30.03,WNW,293,4.5,7.5,69,0.00,,,0.00,VWS V14.01,2013-03-21 04:20:00,
2013-03-21 00:25:00,25.0,16.3,30.03,WSW,258,4.5,4.5,69,0.00,,,0.00,VWS V14.01,2013-03-21 04:25:00,
2013-03-21 00:30:00,24.9,16.2,30.03,West,272,6.0,6.0,69,0.00,,,0.00,VWS V14.01,2013-03-21 04:30:00,
2013-03-21 00:35:00,24.9,16.5,30.03,West,265,4.5,4.5,70,0.00,,,0.00,VWS V14.01,2013-03-21 04:35:00,
2013-03-21 00:40:00,24.8,16.4,30.03,WSW,246,6.0,6.0,70,0.00,,,0.00,VWS V14.01,2013-03-21 04:40:00,
2013-03-21 00:45:00,24.8,16.4,30.03,WSW,244,6.0,6.0,70,0.00,,,0.00,VWS V14.01,2013-03-21 04:45:00,
2013-03-21 00:50:00,24.7,16.3,30.03,West,262,4.5,6.0,70,0.00,,,0.00,VWS V14.01,2013-03-21 04:50:00,
2013-03-21 00:55:00,24.6,16.5,30.03,WSW,246,10.5,10.5,71,0.00,,,0.00,VWS V14.01,2013-03-21 04:55:00,
2013-03-21 01:00:00,24.6,16.5,30.03,West,265,4.5,9.0,71,0.00,,,0.00,VWS V14.01,2013-03-21 05:00:00,
2013-03-21 01:05:00,24.5,16.5,30.03,WSW,246,9.0,9.0,71,0.00,,,0.00,VWS V14.01,2013-03-21 05:05:00,
2013-03-21 01:10:00,24.4,16.4,30.03,WSW,257,7.5,7.5,71,0.00,,,0.00,VWS V14.01,2013-03-21 05:10:00,
2013-03-21 01:15:00,24.3,16.6,30.03,West,261,9.0,10.5,72,0.00,,,0.00,VWS V14.01,2013-03-21 05:15:00,
2013-03-21 01:20:00,24.2,16.5,30.03,WNW,284,7.5,9.0,72,0.00,,,0.00,VWS V14.01,2013-03-21 05:20:00,
2013-03-21 01:25:00,24.2,16.5,30.03,WSW,250,12.0,12.0,72,0.00,,,0.00,VWS V14.01,2013-03-21 05:25:00,
2013-03-21 01:30:00,24.3,16.6,30.02,West,259,6.0,7.5,72,0.00,,,0.00,VWS V14.01,2013-03-21 05:30:00,
2013-03-21 01:35:00,24.1,16.4,30.02,West,268,7.5,7.5,72,0.00,,,0.00,VWS V14.01,2013-03-21 05:35:00,
2013-03-21 01:40:00,24.0,16.3,30.02,West,267,6.0,7.5,72,0.00,,,0.00,VWS V14.01,2013-03-21 05:40:00,
2013-03-21 01:45:00,24.0,16.6,30.02,West,268,6.0,10.5,73,0.00,,,0.00,VWS V14.01,2013-03-21 05:45:00,
2013-03-21 01:50:00,24.0,16.6,30.02,WSW,250,12.0,12.0,73,0.00,,,0.00,VWS V14.01,2013-03-21 05:50:00,
2013-03-21 01:55:00,24.0,16.6,30.02,WSW,246,6.0,9.0,73,0.00,,,0.00,VWS V14.01,2013-03-21 05:55:00,
2013-03-21 02:00:00,23.9,16.5,30.02,WSW,246,6.0,10.5,73,0.00,,,0.00,VWS V14.01,2013-03-21 06:00:00,
2013-03-21 02:05:00,23.7,16.6,30.02,WSW,258,6.0,6.0,74,0.00,,,0.00,VWS V14.01,2013-03-21 06:05:00,
2013-03-21 02:10:00,23.6,16.9,30.02,West,261,4.5,7.5,75,0.00,,,0.00,VWS V14.01,2013-03-21 06:10:00,
2013-03-21 02:15:00,23.6,16.9,30.02,West,275,9.0,9.0,75,0.00,,,0.00,VWS V14.01,2013-03-21 06:15:00,
2013-03-21 02:20:00,23.5,16.8,30.02,WSW,239,10.5,10.5,75,0.00,,,0.00,VWS V14.01,2013-03-21 06:20:00,
2013-03-21 02:25:00,23.6,16.9,30.02,WSW,250,6.0,9.0,75,0.00,,,0.00,VWS V14.01,2013-03-21 06:25:00,
2013-03-21 02:30:00,23.5,16.8,30.02,SW,229,6.0,9.0,75,0.00,,,0.00,VWS V14.01,2013-03-21 06:30:00,
2013-03-21 02:35:00,23.4,16.7,30.02,WSW,253,12.0,12.0,75,0.00,,,0.00,VWS V14.01,2013-03-21 06:35:00,
2013-03-21 02:40:00,23.4,17.0,30.02,West,262,9.0,12.0,76,0.00,,,0.00,VWS V14.01,2013-03-21 06:40:00,
2013-03-21 02:44:00,23.5,17.1,30.02,West,262,9.0,9.0,76,0.00,,,0.00,VWS V14.01,2013-03-21 06:44:00,
2013-03-21 02:49:00,23.4,17.0,30.01,WSW,251,6.0,9.0,76,0.00,,,0.00,VWS V14.01,2013-03-21 06:49:00,
2013-03-21 02:54:00,23.4,17.0,30.02,NW,322,7.5,10.5,76,0.00,,,0.00,VWS V14.01,2013-03-21 06:54:00,
2013-03-21 02:59:00,23.3,16.9,30.01,WSW,251,10.5,10.5,76,0.00,,,0.00,VWS V14.01,2013-03-21 06:59:00,
2013-03-21 03:04:00,23.3,16.9,30.01,WSW,255,6.0,6.0,76,0.00,,,0.00,VWS V14.01,2013-03-21 07:04:00,
2013-03-21 03:09:00,23.3,16.9,30.01,West,264,10.5,10.5,76,0.00,,,0.00,VWS V14.01,2013-03-21 07:09:00,
2013-03-21 03:14:00,23.2,17.1,30.01,WSW,246,7.5,7.5,77,0.00,,,0.00,VWS V14.01,2013-03-21 07:14:00,
2013-03-21 03:19:00,23.1,17.0,30.01,WSW,240,7.5,10.5,77,0.00,,,0.00,VWS V14.01,2013-03-21 07:19:00,
2013-03-21 03:24:00,23.1,17.0,30.01,West,262,7.5,7.5,77,0.00,,,0.00,VWS V14.01,2013-03-21 07:24:00,
2013-03-21 03:29:00,23.0,16.9,30.01,WSW,246,7.5,9.0,77,0.00,,,0.00,VWS V14.01,2013-03-21 07:29:00,
2013-03-21 03:34:00,22.9,16.8,30.01,West,264,6.0,9.0,77,0.00,,,0.00,VWS V14.01,2013-03-21 07:34:00,
2013-03-21 03:39:00,22.8,16.7,30.01,WSW,253,9.0,9.0,77,0.00,,,0.00,VWS V14.01,2013-03-21 07:39:00,
2013-03-21 03:44:00,22.8,16.7,30.01,WSW,240,7.5,7.5,77,0.00,,,0.00,VWS V14.01,2013-03-21 07:44:00,
2013-03-21 03:49:00,22.7,16.9,30.00,West,269,4.5,6.0,78,0.00,,,0.00,VWS V14.01,2013-03-21 07:49:00,
2013-03-21 03:54:00,22.7,16.9,30.00,West,272,4.5,7.5,78,0.00,,,0.00,VWS V14.01,2013-03-21 07:54:00,
2013-03-21 03:59:00,22.7,16.9,30.00,West,269,4.5,4.5,78,0.00,,,0.00,VWS V14.01,2013-03-21 07:59:00,
2013-03-21 04:04:00,22.5,16.7,30.00,West,269,4.5,4.5,78,0.00,,,0.00,VWS V14.01,2013-03-21 08:04:00,
2013-03-21 04:09:00,22.5,16.7,30.00,WSW,247,4.5,6.0,78,0.00,,,0.00,VWS V14.01,2013-03-21 08:09:00,
2013-03-21 04:14:00,22.4,16.6,30.00,WSW,257,4.5,6.0,78,0.00,,,0.00,VWS V14.01,2013-03-21 08:14:00,
2013-03-21 04:19:00,22.3,16.5,30.00,WSW,248,4.5,6.0,78,0.00,,,0.00,VWS V14.01,2013-03-21 08:19:00,
2013-03-21 04:24:00,22.1,16.6,30.00,WSW,248,6.0,6.0,79,0.00,,,0.00,VWS V14.01,2013-03-21 08:24:00,
2013-03-21 04:29:00,22.0,16.5,29.99,WSW,255,4.5,6.0,79,0.00,,,0.00,VWS V14.01,2013-03-21 08:29:00,
2013-03-21 04:34:00,21.9,16.4,29.99,WSW,251,4.5,6.0,79,0.00,,,0.00,VWS V14.01,2013-03-21 08:34:00,
2013-03-21 04:39:00,21.8,16.3,29.99,WSW,250,7.5,7.5,79,0.00,,,0.00,VWS V14.01,2013-03-21 08:39:00,
2013-03-21 04:44:00,21.8,16.3,29.99,WSW,240,4.5,7.5,79,0.00,,,0.00,VWS V14.01,2013-03-21 08:44:00,
2013-03-21 04:49:00,21.9,16.1,29.99,WSW,250,6.0,6.0,78,0.00,,,0.00,VWS V14.01,2013-03-21 08:49:00,
2013-03-21 04:54:00,21.9,16.1,29.98,West,271,7.5,7.5,78,0.00,,,0.00,VWS V14.01,2013-03-21 08:54:00,
2013-03-21 04:59:00,21.9,16.4,29.98,SW,229,7.5,9.0,79,0.00,,,0.00,VWS V14.01,2013-03-21 08:59:00,
2013-03-21 05:04:00,21.9,16.4,29.98,WSW,237,7.5,9.0,79,0.00,,,0.00,VWS V14.01,2013-03-21 09:04:00,
2013-03-21 05:09:00,21.9,16.4,29.98,WSW,255,6.0,9.0,79,0.00,,,0.00,VWS V14.01,2013-03-21 09:09:00,
2013-03-21 05:14:00,21.9,16.4,29.98,WSW,253,10.5,10.5,79,0.00,,,0.00,VWS V14.01,2013-03-21 09:14:00,
2013-03-21 05:19:00,21.9,16.4,29.98,WSW,243,7.5,10.5,79,0.00,,,0.00,VWS V14.01,2013-03-21 09:19:00,
2013-03-21 05:24:00,21.7,16.5,29.98,WSW,250,6.0,9.0,80,0.00,,,0.00,VWS V14.01,2013-03-21 09:24:00,
2013-03-21 05:29:00,21.6,16.4,29.98,West,259,6.0,7.5,80,0.00,,,0.00,VWS V14.01,2013-03-21 09:29:00,
2013-03-21 05:34:00,21.5,16.3,29.98,WSW,257,6.0,7.5,80,0.00,,,0.00,VWS V14.01,2013-03-21 09:34:00,
2013-03-21 05:39:00,21.4,16.2,29.98,WSW,250,4.5,6.0,80,0.00,,,0.00,VWS V14.01,2013-03-21 09:39:00,
2013-03-21 05:44:00,21.4,16.2,29.98,West,269,4.5,4.5,80,0.00,,,0.00,VWS V14.01,2013-03-21 09:44:00,
2013-03-21 05:49:00,21.2,16.3,29.98,WNW,286,4.5,6.0,81,0.00,,,0.00,VWS V14.01,2013-03-21 09:49:00,
2013-03-21 05:54:00,21.2,16.3,29.98,NNW,327,3.0,3.0,81,0.00,,,0.00,VWS V14.01,2013-03-21 09:54:00,
2013-03-21 05:59:00,21.0,16.4,29.99,West,272,3.0,3.0,82,0.00,,,0.00,VWS V14.01,2013-03-21 09:59:00,
2013-03-21 06:04:00,21.1,15.9,29.99,West,273,4.5,6.0,80,0.00,,,0.00,VWS V14.01,2013-03-21 10:04:00,
2013-03-21 06:09:00,21.0,15.8,29.99,WNW,300,3.0,3.0,80,0.00,,,0.00,VWS V14.01,2013-03-21 10:09:00,
2013-03-21 06:14:00,21.0,15.5,29.99,WNW,286,3.0,3.0,79,0.00,,,0.00,VWS V14.01,2013-03-21 10:14:00,
2013-03-21 06:19:00,20.8,15.3,29.99,NNW,344,3.0,3.0,79,0.00,,,0.00,VWS V14.01,2013-03-21 10:19:00,
2013-03-21 06:24:00,20.6,15.4,29.99,NNW,344,3.0,3.0,80,0.00,,,0.00,VWS V14.01,2013-03-21 10:24:00,
2013-03-21 06:29:00,20.6,15.7,29.99,NW,315,3.0,3.0,81,0.00,,,0.00,VWS V14.01,2013-03-21 10:29:00,
2013-03-21 06:34:00,20.8,15.6,29.99,WNW,300,3.0,3.0,80,0.00,,,0.00,VWS V14.01,2013-03-21 10:34:00,
2013-03-21 06:39:00,20.9,15.4,29.99,WSW,254,3.0,4.5,79,0.00,,,0.00,VWS V14.01,2013-03-21 10:39:00,
2013-03-21 06:44:00,21.2,15.7,29.99,West,275,4.5,4.5,79,0.00,,,0.00,VWS V14.01,2013-03-21 10:44:00,
2013-03-21 06:49:00,21.3,15.5,29.99,WNW,293,4.5,4.5,78,0.00,,,0.00,VWS V14.01,2013-03-21 10:49:00,
2013-03-21 06:54:00,21.5,15.7,29.99,WNW,290,3.0,3.0,78,0.00,,,0.00,VWS V14.01,2013-03-21 10:54:00,
2013-03-21 06:59:00,21.6,15.8,29.99,WSW,240,6.0,6.0,78,0.00,,,0.00,VWS V14.01,2013-03-21 10:59:00,
2013-03-21 07:04:00,21.7,15.9,29.99,WNW,300,1.5,3.0,78,0.00,,,0.00,VWS V14.01,2013-03-21 11:04:00,
2013-03-21 07:09:00,21.8,16.3,29.99,West,272,4.5,4.5,79,0.00,,,0.00,VWS V14.01,2013-03-21 11:09:00,
2013-03-21 07:14:00,22.0,16.5,29.99,NW,309,1.5,4.5,79,0.00,,,0.00,VWS V14.01,2013-03-21 11:14:00,
2013-03-21 07:19:00,22.1,16.6,29.99,WNW,286,3.0,3.0,79,0.00,,,0.00,VWS V14.01,2013-03-21 11:19:00,
2013-03-21 07:24:00,22.3,17.6,29.99,West,281,6.0,9.0,82,0.00,,,0.00,VWS V14.01,2013-03-21 11:24:00,
2013-03-21 07:29:00,22.2,18.4,29.99,NW,310,4.5,4.5,85,0.00,,,0.00,VWS V14.01,2013-03-21 11:29:00,
2013-03-21 07:34:00,22.1,18.6,29.99,WNW,298,4.5,4.5,86,0.00,,,0.00,VWS V14.01,2013-03-21 11:34:00,
2013-03-21 07:39:00,22.1,18.8,29.99,NW,313,4.5,4.5,87,0.00,,,0.00,VWS V14.01,2013-03-21 11:39:00,
2013-03-21 07:44:00,22.1,18.8,29.99,NW,306,6.0,6.0,87,0.00,,,0.00,VWS V14.01,2013-03-21 11:44:00,
2013-03-21 07:49:00,22.2,18.9,29.99,NNW,338,6.0,6.0,87,0.00,,,0.00,VWS V14.01,2013-03-21 11:49:00,
2013-03-21 07:54:00,22.2,18.9,29.99,NW,311,9.0,9.0,87,0.00,,,0.00,VWS V14.01,2013-03-21 11:54:00,
2013-03-21 07:59:00,22.2,19.2,30.00,WNW,299,6.0,6.0,88,0.00,,,0.00,VWS V14.01,2013-03-21 11:59:00,
2013-03-21 08:04:00,22.2,19.2,30.00,NW,324,6.0,9.0,88,0.00,,,0.00,VWS V14.01,2013-03-21 12:04:00,
2013-03-21 08:09:00,22.2,19.2,30.00,NNW,344,6.0,6.0,88,0.00,,,0.00,VWS V14.01,2013-03-21 12:09:00,
2013-03-21 08:14:00,22.1,19.4,30.00,NNW,348,4.5,6.0,89,0.00,,,0.00,VWS V14.01,2013-03-21 12:14:00,
2013-03-21 08:19:00,22.1,19.4,30.00,NNW,337,7.5,9.0,89,0.00,,,0.00,VWS V14.01,2013-03-21 12:19:00,
2013-03-21 08:24:00,22.1,19.1,30.00,NNE,16,10.5,10.5,88,0.00,,,0.00,VWS V14.01,2013-03-21 12:24:00,
2013-03-21 08:29:00,22.1,19.4,30.00,NW,319,3.0,4.5,89,0.00,,,0.00,VWS V14.01,2013-03-21 12:29:00,
2013-03-21 08:34:00,22.1,19.6,30.00,NW,326,6.0,6.0,90,0.00,,,0.00,VWS V14.01,2013-03-21 12:34:00,
2013-03-21 08:39:00,22.1,19.9,30.00,NW,318,4.5,6.0,91,0.00,,,0.00,VWS V14.01,2013-03-21 12:39:00,
2013-03-21 08:44:00,22.1,20.1,30.00,NNW,330,6.0,6.0,92,0.00,,,0.00,VWS V14.01,2013-03-21 12:44:00,
2013-03-21 08:49:00,22.1,19.9,30.01,WNW,282,7.5,10.5,91,0.00,,,0.00,VWS V14.01,2013-03-21 12:49:00,
2013-03-21 08:54:00,22.1,19.9,30.00,NNW,327,6.0,9.0,91,0.00,,,0.00,VWS V14.01,2013-03-21 12:54:00,
2013-03-21 08:59:00,22.1,19.4,30.01,NW,315,9.0,10.5,89,0.00,,,0.00,VWS V14.01,2013-03-21 12:59:00,
2013-03-21 09:04:00,22.3,19.3,30.01,NW,311,7.5,7.5,88,0.00,,,0.00,VWS V14.01,2013-03-21 13:04:00,
2013-03-21 09:09:00,22.7,19.1,30.01,WNW,282,12.0,12.0,86,0.00,,,0.00,VWS V14.01,2013-03-21 13:09:00,
2013-03-21 09:14:00,23.1,19.3,30.01,WNW,288,6.0,7.5,85,0.00,,,0.00,VWS V14.01,2013-03-21 13:14:00,
2013-03-21 09:19:00,23.6,19.2,30.02,NW,315,13.5,16.5,83,0.00,,,0.00,VWS V14.01,2013-03-21 13:19:00,
2013-03-21 09:24:00,23.6,18.6,30.01,NW,318,10.5,13.5,81,0.00,,,0.00,VWS V14.01,2013-03-21 13:24:00,
2013-03-21 09:29:00,23.8,18.8,30.01,NNW,338,9.0,18.0,81,0.00,,,0.00,VWS V14.01,2013-03-21 13:29:00,
2013-03-21 09:34:00,24.0,18.7,30.02,NW,310,10.5,15.0,80,0.00,,,0.00,VWS V14.01,2013-03-21 13:34:00,
2013-03-21 09:39:00,24.0,17.9,30.02,NE,35,10.5,13.5,77,0.00,,,0.00,VWS V14.01,2013-03-21 13:39:00,
2013-03-21 09:44:00,24.1,17.3,30.02,NNE,12,13.5,21.0,75,0.00,,,0.00,VWS V14.01,2013-03-21 13:44:00,
2013-03-21 09:49:00,24.2,17.7,30.02,NNW,330,7.5,15.0,76,0.00,,,0.00,VWS V14.01,2013-03-21 13:49:00,
2013-03-21 09:54:00,24.2,18.0,30.02,NNW,333,6.0,9.0,77,0.00,,,0.00,VWS V14.01,2013-03-21 13:54:00,
2013-03-21 09:59:00,24.4,18.2,30.03,NNW,340,21.0,21.0,77,0.00,,,0.00,VWS V14.01,2013-03-21 13:59:00,
2013-03-21 10:04:00,24.0,17.9,30.03,NW,309,9.0,16.5,77,0.00,,,0.00,VWS V14.01,2013-03-21 14:04:00,
2013-03-21 10:09:00,23.7,19.9,30.03,WNW,298,7.5,10.5,85,0.00,,,0.00,VWS V14.01,2013-03-21 14:09:00,
2013-03-21 10:14:00,23.6,20.0,30.03,NW,315,7.5,7.5,86,0.00,,,0.00,VWS V14.01,2013-03-21 14:14:00,
2013-03-21 10:19:00,23.8,19.7,30.03,NW,320,6.0,6.0,84,0.00,,,0.00,VWS V14.01,2013-03-21 14:19:00,
2013-03-21 10:24:00,24.2,19.8,30.03,NNW,340,9.0,9.0,83,0.00,,,0.00,VWS V14.01,2013-03-21 14:24:00,
2013-03-21 10:29:00,24.4,19.1,30.03,WNW,293,6.0,7.5,80,0.00,,,0.00,VWS V14.01,2013-03-21 14:29:00,
2013-03-21 10:34:00,24.2,18.9,30.03,NW,309,10.5,10.5,80,0.00,,,0.00,VWS V14.01,2013-03-21 14:34:00,
2013-03-21 10:39:00,23.3,20.0,30.04,NNW,346,13.5,13.5,87,0.00,,,0.00,VWS V14.01,2013-03-21 14:39:00,
2013-03-21 10:45:00,22.4,19.7,30.04,North,354,13.5,15.0,89,0.00,,,0.00,VWS V14.01,2013-03-21 14:45:00,
2013-03-21 10:50:00,21.9,18.4,30.04,NW,319,4.5,12.0,86,0.00,,,0.00,VWS V14.01,2013-03-21 14:50:00,
2013-03-21 10:55:00,22.4,18.9,30.04,NW,307,7.5,9.0,86,0.00,,,0.00,VWS V14.01,2013-03-21 14:55:00,
2013-03-21 11:00:00,23.2,19.4,30.04,North,349,9.0,12.0,85,0.00,,,0.00,VWS V14.01,2013-03-21 15:00:00,
2013-03-21 11:05:00,23.9,18.4,30.04,WNW,293,6.0,15.0,79,0.00,,,0.00,VWS V14.01,2013-03-21 15:05:00,
2013-03-21 11:10:00,24.7,19.1,30.05,NNW,343,7.5,10.5,79,0.00,,,0.00,VWS V14.01,2013-03-21 15:10:00,
2013-03-21 11:15:00,25.6,19.4,30.05,NW,319,9.0,16.5,77,0.00,,,0.00,VWS V14.01,2013-03-21 15:15:00,
2013-03-21 11:20:00,25.7,17.6,30.05,NW,323,12.0,13.5,71,0.00,,,0.00,VWS V14.01,2013-03-21 15:20:00,
2013-03-21 11:25:00,25.5,16.8,30.05,NNW,340,13.5,25.5,69,0.00,,,0.00,VWS V14.01,2013-03-21 15:25:00,
2013-03-21 11:30:00,25.2,17.1,30.04,North,352,12.0,13.5,71,0.00,,,0.00,VWS V14.01,2013-03-21 15:30:00,
2013-03-21 11:35:00,25.7,17.6,30.05,NW,313,7.5,12.0,71,0.00,,,0.00,VWS V14.01,2013-03-21 15:35:00,
2013-03-21 11:39:00,26.0,17.6,30.05,NW,313,6.0,13.5,70,0.00,,,0.00,VWS V14.01,2013-03-21 15:39:00,
2013-03-21 11:44:00,26.1,17.0,30.05,NNW,333,10.5,12.0,68,0.00,,,0.00,VWS V14.01,2013-03-21 15:44:00,
2013-03-21 11:49:00,26.0,17.2,30.05,NNW,330,10.5,15.0,69,0.00,,,0.00,VWS V14.01,2013-03-21 15:49:00,
2013-03-21 11:54:00,25.7,17.0,30.05,NNW,333,12.0,13.5,69,0.00,,,0.00,VWS V14.01,2013-03-21 15:54:00,
2013-03-21 11:59:00,26.0,17.2,30.05,NW,318,9.0,22.5,69,0.00,,,0.00,VWS V14.01,2013-03-21 15:59:00,
2013-03-21 12:04:00,26.2,16.4,30.05,WNW,283,7.5,10.5,66,0.00,,,0.00,VWS V14.01,2013-03-21 16:04:00,
2013-03-21 12:09:00,26.5,17.0,30.05,NW,310,12.0,12.0,67,0.00,,,0.00,VWS V14.01,2013-03-21 16:09:00,
2013-03-21 12:14:00,26.9,17.4,30.05,WNW,288,16.5,16.5,67,0.00,,,0.00,VWS V14.01,2013-03-21 16:14:00,
2013-03-21 12:19:00,27.1,16.2,30.06,NW,307,7.5,15.0,63,0.00,,,0.00,VWS V14.01,2013-03-21 16:19:00,
2013-03-21 12:24:00,26.5,16.7,30.06,WNW,289,6.0,10.5,66,0.00,,,0.00,VWS V14.01,2013-03-21 16:24:00,
2013-03-21 12:29:00,26.6,16.1,30.05,WNW,286,13.5,13.5,64,0.00,,,0.00,VWS V14.01,2013-03-21 16:29:00,
2013-03-21 12:34:00,27.2,16.3,30.05,WNW,299,13.5,15.0,63,0.00,,,0.00,VWS V14.01,2013-03-21 16:34:00,
2013-03-21 12:39:00,27.1,16.6,30.05,WNW,291,16.5,16.5,64,0.00,,,0.00,VWS V14.01,2013-03-21 16:39:00,
2013-03-21 12:44:00,27.1,17.6,30.05,NNW,328,18.0,18.0,67,0.00,,,0.00,VWS V14.01,2013-03-21 16:44:00,
2013-03-21 12:49:00,27.0,18.2,30.05,NW,306,10.5,15.0,69,0.00,,,0.00,VWS V14.01,2013-03-21 16:49:00,
2013-03-21 12:54:00,26.7,16.9,30.05,NNW,328,6.0,10.5,66,0.00,,,0.00,VWS V14.01,2013-03-21 16:54:00,
2013-03-21 12:59:00,27.1,18.0,30.05,NW,324,10.5,10.5,68,0.00,,,0.00,VWS V14.01,2013-03-21 16:59:00,
2013-03-21 13:04:00,27.4,15.7,30.05,NW,319,9.0,19.5,61,0.00,,,0.00,VWS V14.01,2013-03-21 17:04:00,
2013-03-21 13:09:00,28.1,17.1,30.05,West,281,7.5,13.5,63,0.00,,,0.00,VWS V14.01,2013-03-21 17:09:00,
2013-03-21 13:14:00,28.8,17.1,30.05,WNW,285,10.5,13.5,61,0.00,,,0.00,VWS V14.01,2013-03-21 17:14:00,
2013-03-21 13:19:00,28.8,17.1,30.05,WNW,290,9.0,15.0,61,0.00,,,0.00,VWS V14.01,2013-03-21 17:19:00,
2013-03-21 13:24:00,28.1,16.8,30.06,NNW,338,9.0,15.0,62,0.00,,,0.00,VWS V14.01,2013-03-21 17:24:00,
2013-03-21 13:29:00,27.7,15.6,30.06,NW,321,6.0,12.0,60,0.00,,,0.00,VWS V14.01,2013-03-21 17:29:00,
2013-03-21 13:34:00,27.5,17.3,30.06,NW,305,10.5,13.5,65,0.00,,,0.00,VWS V14.01,2013-03-21 17:34:00,
2013-03-21 13:39:00,28.2,17.2,30.06,West,278,6.0,9.0,63,0.00,,,0.00,VWS V14.01,2013-03-21 17:39:00,
2013-03-21 13:44:00,28.4,16.3,30.06,NNW,336,12.0,18.0,60,0.00,,,0.00,VWS V14.01,2013-03-21 17:44:00,
2013-03-21 13:49:00,28.4,16.7,30.06,NNE,13,7.5,7.5,61,0.00,,,0.00,VWS V14.01,2013-03-21 17:49:00,
2013-03-21 13:54:00,28.3,16.2,30.06,West,276,18.0,22.5,60,0.00,,,0.00,VWS V14.01,2013-03-21 17:54:00,
2013-03-21 13:59:00,28.5,17.1,30.06,West,279,9.0,12.0,62,0.00,,,0.00,VWS V14.01,2013-03-21 17:59:00,
2013-03-21 14:04:00,28.7,17.0,30.06,WNW,295,10.5,10.5,61,0.00,,,0.00,VWS V14.01,2013-03-21 18:04:00,
2013-03-21 14:09:00,28.7,16.2,30.06,WNW,293,7.5,13.5,59,0.00,,,0.00,VWS V14.01,2013-03-21 18:09:00,
2013-03-21 14:14:00,29.0,16.5,30.05,WNW,288,9.0,12.0,59,0.00,,,0.00,VWS V14.01,2013-03-21 18:14:00,
2013-03-21 14:19:00,30.0,16.6,30.05,South,186,1.5,4.5,57,0.00,,,0.00,VWS V14.01,2013-03-21 18:19:00,
2013-03-21 14:24:00,30.5,16.3,30.05,West,279,12.0,12.0,55,0.00,,,0.00,VWS V14.01,2013-03-21 18:24:00,
2013-03-21 14:29:00,30.3,17.3,30.05,NNE,19,6.0,12.0,58,0.00,,,0.00,VWS V14.01,2013-03-21 18:29:00,
2013-03-21 14:34:00,30.0,15.8,30.05,NNW,333,6.0,9.0,55,0.00,,,0.00,VWS V14.01,2013-03-21 18:34:00,
2013-03-21 14:39:00,29.6,15.4,30.05,West,270,3.0,6.0,55,0.00,,,0.00,VWS V14.01,2013-03-21 18:39:00,
2013-03-21 14:44:00,30.1,17.1,30.05,WSW,250,12.0,15.0,58,0.00,,,0.00,VWS V14.01,2013-03-21 18:44:00,
2013-03-21 14:49:00,30.2,16.0,30.05,NNW,336,9.0,12.0,55,0.00,,,0.00,VWS V14.01,2013-03-21 18:49:00,
2013-03-21 14:54:00,30.2,15.6,30.05,North,349,9.0,12.0,54,0.00,,,0.00,VWS V14.01,2013-03-21 18:54:00,
2013-03-21 14:59:00,30.3,17.3,30.05,West,275,12.0,15.0,58,0.00,,,0.00,VWS V14.01,2013-03-21 18:59:00,
2013-03-21 15:04:00,29.9,17.3,30.05,WNW,288,10.5,13.5,59,0.00,,,0.00,VWS V14.01,2013-03-21 19:04:00,
2013-03-21 15:09:00,30.0,17.4,30.05,WNW,291,6.0,7.5,59,0.00,,,0.00,VWS V14.01,2013-03-21 19:09:00,
2013-03-21 15:14:00,30.6,17.6,30.05,West,272,7.5,10.5,58,0.00,,,0.00,VWS V14.01,2013-03-21 19:14:00,
2013-03-21 15:19:00,30.7,16.9,30.04,North,352,7.5,7.5,56,0.00,,,0.00,VWS V14.01,2013-03-21 19:19:00,
2013-03-21 15:24:00,31.1,18.1,30.04,West,279,9.0,12.0,58,0.00,,,0.00,VWS V14.01,2013-03-21 19:24:00,
2013-03-21 15:29:00,31.6,17.7,30.04,NW,326,3.0,4.5,56,0.00,,,0.00,VWS V14.01,2013-03-21 19:29:00,
2013-03-21 15:34:00,31.8,17.1,30.04,NW,313,9.0,10.5,54,0.00,,,0.00,VWS V14.01,2013-03-21 19:34:00,
2013-03-21 15:39:00,31.7,16.5,30.04,NW,319,7.5,10.5,53,0.00,,,0.00,VWS V14.01,2013-03-21 19:39:00,
2013-03-21 15:44:00,31.7,17.0,30.04,North,6,12.0,12.0,54,0.00,,,0.00,VWS V14.01,2013-03-21 19:44:00,
2013-03-21 15:49:00,32.3,16.7,30.04,North,10,4.5,6.0,52,0.00,,,0.00,VWS V14.01,2013-03-21 19:49:00,
2013-03-21 15:54:00,31.9,17.2,30.04,North,350,15.0,15.0,54,0.00,,,0.00,VWS V14.01,2013-03-21 19:54:00,
2013-03-21 15:59:00,31.3,16.2,30.04,WNW,284,6.0,7.5,53,0.00,,,0.00,VWS V14.01,2013-03-21 19:59:00,
2013-03-21 16:04:00,31.3,16.2,30.04,NW,313,6.0,9.0,53,0.00,,,0.00,VWS V14.01,2013-03-21 20:04:00,
2013-03-21 16:09:00,31.1,16.4,30.03,West,272,6.0,6.0,54,0.00,,,0.00,VWS V14.01,2013-03-21 20:09:00,
2013-03-21 16:14:00,30.7,15.2,30.03,NW,313,6.0,6.0,52,0.00,,,0.00,VWS V14.01,2013-03-21 20:14:00,
2013-03-21 16:19:00,30.6,15.5,30.03,North,352,7.5,10.5,53,0.00,,,0.00,VWS V14.01,2013-03-21 20:19:00,
2013-03-21 16:24:00,31.2,16.1,30.03,NNW,343,1.5,3.0,53,0.00,,,0.00,VWS V14.01,2013-03-21 20:24:00,
2013-03-21 16:29:00,32.1,16.5,30.03,West,263,4.5,4.5,52,0.00,,,0.00,VWS V14.01,2013-03-21 20:29:00,
2013-03-21 16:34:00,32.8,17.6,30.03,NNE,24,9.0,9.0,53,0.00,,,0.00,VWS V14.01,2013-03-21 20:34:00,
2013-03-21 16:39:00,32.8,16.7,30.02,NE,35,4.5,6.0,51,0.00,,,0.00,VWS V14.01,2013-03-21 20:39:00,
2013-03-21 16:44:00,33.3,17.6,30.02,NNW,346,7.5,9.0,52,0.00,,,0.00,VWS V14.01,2013-03-21 20:44:00,
2013-03-21 16:49:00,33.4,18.1,30.02,NW,321,7.5,9.0,53,0.00,,,0.00,VWS V14.01,2013-03-21 20:49:00,
2013-03-21 16:54:00,33.6,17.9,30.02,North,6,12.0,12.0,52,0.00,,,0.00,VWS V14.01,2013-03-21 20:54:00,
2013-03-21 16:59:00,33.7,18.0,30.02,NW,304,9.0,12.0,52,0.00,,,0.00,VWS V14.01,2013-03-21 20:59:00,
2013-03-21 17:04:00,33.7,18.0,30.02,ENE,70,4.5,4.5,52,0.00,,,0.00,VWS V14.01,2013-03-21 21:04:00,
2013-03-21 17:09:00,33.9,17.2,30.02,NNE,19,9.0,9.0,50,0.00,,,0.00,VWS V14.01,2013-03-21 21:09:00,
2013-03-21 17:14:00,34.1,17.9,30.02,NNW,330,4.5,6.0,51,0.00,,,0.00,VWS V14.01,2013-03-21 21:14:00,
2013-03-21 17:19:00,33.9,16.3,30.02,NE,56,7.5,7.5,48,0.00,,,0.00,VWS V14.01,2013-03-21 21:19:00,
2013-03-21 17:24:00,34.0,16.4,30.02,North,10,3.0,3.0,48,0.00,,,0.00,VWS V14.01,2013-03-21 21:24:00,
2013-03-21 17:29:00,34.3,16.2,30.02,ESE,104,4.5,4.5,47,0.00,,,0.00,VWS V14.01,2013-03-21 21:29:00,
2013-03-21 17:34:00,34.5,16.9,30.02,West,281,4.5,4.5,48,0.00,,,0.00,VWS V14.01,2013-03-21 21:34:00,
2013-03-21 17:39:00,34.2,16.6,30.02,ENE,68,4.5,4.5,48,0.00,,,0.00,VWS V14.01,2013-03-21 21:39:00,
2013-03-21 17:44:00,34.5,16.9,30.02,South,175,4.5,4.5,48,0.00,,,0.00,VWS V14.01,2013-03-21 21:44:00,
2013-03-21 17:49:00,35.3,17.1,30.02,SSW,196,4.5,4.5,47,0.00,,,0.00,VWS V14.01,2013-03-21 21:49:00,
2013-03-21 17:54:00,35.2,17.0,30.02,West,262,6.0,6.0,47,0.00,,,0.00,VWS V14.01,2013-03-21 21:54:00,
2013-03-21 17:59:00,34.7,17.0,30.02,West,260,4.5,7.5,48,0.00,,,0.00,VWS V14.01,2013-03-21 21:59:00,
2013-03-21 18:04:00,34.8,16.6,30.02,NW,321,1.5,1.5,47,0.00,,,0.00,VWS V14.01,2013-03-21 22:04:00,
2013-03-21 18:09:00,35.2,17.0,30.01,SE,137,4.5,4.5,47,0.00,,,0.00,VWS V14.01,2013-03-21 22:09:00,
2013-03-21 18:14:00,35.5,17.3,30.01,ENE,72,4.5,6.0,47,0.00,,,0.00,VWS V14.01,2013-03-21 22:14:00,
2013-03-21 18:19:00,34.9,16.7,30.01,WNW,301,6.0,6.0,47,0.00,,,0.00,VWS V14.01,2013-03-21 22:19:00,
2013-03-21 18:24:00,35.0,16.8,30.01,SSW,199,4.5,4.5,47,0.00,,,0.00,VWS V14.01,2013-03-21 22:24:00,
2013-03-21 18:29:00,35.4,17.2,30.01,East,82,6.0,6.0,47,0.00,,,0.00,VWS V14.01,2013-03-21 22:29:00,
2013-03-21 18:34:00,35.1,16.9,30.02,ENE,69,4.5,7.5,47,0.00,,,0.00,VWS V14.01,2013-03-21 22:34:00,
2013-03-21 18:39:00,34.8,17.1,30.01,WNW,295,3.0,3.0,48,0.00,,,0.00,VWS V14.01,2013-03-21 22:39:00,
2013-03-21 18:44:00,35.0,17.3,30.02,NW,307,3.0,3.0,48,0.00,,,0.00,VWS V14.01,2013-03-21 22:44:00,
2013-03-21 18:49:00,34.9,16.7,30.01,East,89,3.0,3.0,47,0.00,,,0.00,VWS V14.01,2013-03-21 22:49:00,
2013-03-21 18:54:00,34.7,17.0,30.02,East,101,6.0,6.0,48,0.00,,,0.00,VWS V14.01,2013-03-21 22:54:00,
2013-03-21 18:59:00,34.6,17.4,30.02,ENE,66,4.5,4.5,49,0.00,,,0.00,VWS V14.01,2013-03-21 22:59:00,
2013-03-21 19:04:00,34.7,17.0,30.02,NE,46,1.5,3.0,48,0.00,,,0.00,VWS V14.01,2013-03-21 23:04:00,
2013-03-21 19:09:00,34.7,17.0,30.02,North,6,3.0,4.5,48,0.00,,,0.00,VWS V14.01,2013-03-21 23:09:00,
2013-03-21 19:14:00,34.5,17.3,30.02,NNE,14,3.0,3.0,49,0.00,,,0.00,VWS V14.01,2013-03-21 23:14:00,
2013-03-21 19:19:00,34.2,17.0,30.01,NE,42,4.5,4.5,49,0.00,,,0.00,VWS V14.01,2013-03-21 23:19:00,
2013-03-21 19:24:00,33.8,16.7,30.01,NE,52,4.5,4.5,49,0.00,,,0.00,VWS V14.01,2013-03-21 23:24:00,
2013-03-21 19:29:00,33.3,17.1,30.01,NE,39,4.5,6.0,51,0.00,,,0.00,VWS V14.01,2013-03-21 23:29:00,
2013-03-21 19:34:00,33.0,16.4,30.02,NNW,347,1.5,1.5,50,0.00,,,0.00,VWS V14.01,2013-03-21 23:34:00,
2013-03-21 19:39:00,32.8,16.2,30.02,NNE,25,3.0,3.0,50,0.00,,,0.00,VWS V14.01,2013-03-21 23:39:00,
2013-03-21 19:44:00,32.2,16.6,30.02,NNE,21,1.5,1.5,52,0.00,,,0.00,VWS V14.01,2013-03-21 23:44:00,
2013-03-21 19:49:00,31.6,16.9,30.02,NNE,21,1.5,1.5,54,0.00,,,0.00,VWS V14.01,2013-03-21 23:49:00,
2013-03-21 19:54:00,31.1,16.4,30.02,NNE,30,1.5,1.5,54,0.00,,,0.00,VWS V14.01,2013-03-21 23:54:00,
2013-03-21 19:59:00,30.8,17.0,30.02,NE,40,1.5,1.5,56,0.00,,,0.00,VWS V14.01,2013-03-21 23:59:00,
2013-03-21 20:04:00,30.2,16.4,30.02,NE,40,1.5,1.5,56,0.00,,,0.00,VWS V14.01,2013-03-22 00:04:00,
2013-03-21 20:09:00,29.8,16.4,30.03,NE,41,1.5,1.5,57,0.00,,,0.00,VWS V14.01,2013-03-22 00:09:00,
2013-03-21 20:14:00,29.3,16.0,30.03,NE,41,1.5,1.5,57,0.00,,,0.00,VWS V14.01,2013-03-22 00:14:00,
2013-03-21 20:19:00,28.8,15.5,30.03,NE,40,1.5,1.5,57,0.00,,,0.00,VWS V14.01,2013-03-22 00:19:00,
2013-03-21 20:24:00,28.3,16.2,30.03,NE,41,1.5,1.5,60,0.00,,,0.00,VWS V14.01,2013-03-22 00:24:00,
2013-03-21 20:29:00,28.3,16.2,30.03,NE,41,1.5,1.5,60,0.00,,,0.00,VWS V14.01,2013-03-22 00:29:00,
2013-03-21 20:34:00,28.3,16.6,30.04,NE,41,1.5,1.5,61,0.00,,,0.00,VWS V14.01,2013-03-22 00:34:00,
2013-03-21 20:39:00,28.4,16.3,30.04,NE,41,1.5,1.5,60,0.00,,,0.00,VWS V14.01,2013-03-22 00:39:00,
2013-03-21 20:44:00,28.4,16.3,30.04,NE,41,1.5,1.5,60,0.00,,,0.00,VWS V14.01,2013-03-22 00:44:00,
2013-03-21 20:49:00,28.4,16.3,30.04,NE,40,1.5,1.5,60,0.00,,,0.00,VWS V14.01,2013-03-22 00:49:00,
2013-03-21 20:54:00,28.3,17.0,30.04,NE,39,1.5,1.5,62,0.00,,,0.00,VWS V14.01,2013-03-22 00:54:00,
2013-03-21 20:59:00,28.1,17.1,30.04,NE,39,1.5,1.5,63,0.00,,,0.00,VWS V14.01,2013-03-22 00:59:00,
2013-03-21 21:04:00,28.0,16.7,30.05,NE,39,1.5,1.5,62,0.00,,,0.00,VWS V14.01,2013-03-22 01:04:00,
2013-03-21 21:09:00,27.8,16.9,30.05,NE,40,1.5,1.5,63,0.00,,,0.00,VWS V14.01,2013-03-22 01:09:00,
2013-03-21 21:14:00,27.5,16.9,30.05,NE,39,1.5,1.5,64,0.00,,,0.00,VWS V14.01,2013-03-22 01:14:00,
2013-03-21 21:19:00,27.4,16.5,30.05,SW,229,1.5,1.5,63,0.00,,,0.00,VWS V14.01,2013-03-22 01:19:00,
2013-03-21 21:24:00,27.1,16.2,30.05,SW,230,1.5,1.5,63,0.00,,,0.00,VWS V14.01,2013-03-22 01:24:00,
2013-03-21 21:29:00,26.5,16.3,30.05,SW,230,1.5,1.5,65,0.00,,,0.00,VWS V14.01,2013-03-22 01:29:00,
2013-03-21 21:34:00,26.5,16.3,30.05,SW,230,1.5,1.5,65,0.00,,,0.00,VWS V14.01,2013-03-22 01:34:00,
2013-03-21 21:39:00,26.6,16.4,30.06,SW,230,1.5,1.5,65,0.00,,,0.00,VWS V14.01,2013-03-22 01:39:00,
2013-03-21 21:44:00,26.4,16.2,30.05,SW,230,1.5,1.5,65,0.00,,,0.00,VWS V14.01,2013-03-22 01:44:00,
2013-03-21 21:48:00,25.7,16.6,30.06,SW,230,1.5,1.5,68,0.00,,,0.00,VWS V14.01,2013-03-22 01:48:00,
2013-03-21 21:54:00,25.0,16.9,30.06,SW,230,1.5,1.5,71,0.00,,,0.00,VWS V14.01,2013-03-22 01:54:00,
2013-03-21 21:59:00,24.6,16.9,30.06,SW,230,1.5,1.5,72,0.00,,,0.00,VWS V14.01,2013-03-22 01:59:00,
2013-03-21 22:04:00,24.2,16.5,30.06,SW,230,1.5,1.5,72,0.00,,,0.00,VWS V14.01,2013-03-22 02:04:00,
2013-03-21 22:08:00,24.1,16.4,30.06,SW,230,1.5,1.5,72,0.00,,,0.00,VWS V14.01,2013-03-22 02:08:00,
2013-03-21 22:13:00,23.6,15.9,30.06,SW,230,1.5,1.5,72,0.00,,,0.00,VWS V14.01,2013-03-22 02:13:00,
2013-03-21 22:18:00,23.2,16.2,30.06,SW,230,1.5,1.5,74,0.00,,,0.00,VWS V14.01,2013-03-22 02:18:00,
2013-03-21 22:23:00,22.9,15.9,30.06,SW,230,1.5,1.5,74,0.00,,,0.00,VWS V14.01,2013-03-22 02:23:00,
2013-03-21 22:28:00,22.5,15.8,30.06,SW,230,1.5,1.5,75,0.00,,,0.00,VWS V14.01,2013-03-22 02:28:00,
2013-03-21 22:33:00,22.9,16.5,30.07,SW,230,1.5,1.5,76,0.00,,,0.00,VWS V14.01,2013-03-22 02:33:00,
2013-03-21 22:38:00,23.9,17.1,30.07,SW,230,1.5,1.5,75,0.00,,,0.00,VWS V14.01,2013-03-22 02:38:00,
2013-03-21 22:43:00,24.4,17.3,30.07,SW,229,1.5,1.5,74,0.00,,,0.00,VWS V14.01,2013-03-22 02:43:00,
2013-03-21 22:48:00,24.5,16.8,30.06,SW,229,1.5,1.5,72,0.00,,,0.00,VWS V14.01,2013-03-22 02:48:00,
2013-03-21 22:53:00,24.0,16.3,30.07,SW,229,1.5,1.5,72,0.00,,,0.00,VWS V14.01,2013-03-22 02:53:00,
2013-03-21 22:58:00,23.4,16.4,30.07,SW,229,1.5,1.5,74,0.00,,,0.00,VWS V14.01,2013-03-22 02:58:00,
2013-03-21 23:03:00,23.4,16.4,30.07,SW,230,1.5,1.5,74,0.00,,,0.00,VWS V14.01,2013-03-22 03:03:00,
2013-03-21 23:08:00,23.7,17.0,30.07,SW,230,1.5,1.5,75,0.00,,,0.00,VWS V14.01,2013-03-22 03:08:00,
2013-03-21 23:13:00,23.8,17.4,30.07,SW,229,1.5,1.5,76,0.00,,,0.00,VWS V14.01,2013-03-22 03:13:00,
2013-03-21 23:18:00,23.7,17.0,30.07,SW,230,1.5,1.5,75,0.00,,,0.00,VWS V14.01,2013-03-22 03:18:00,
2013-03-21 23:23:00,24.0,17.2,30.07,SW,230,1.5,1.5,75,0.00,,,0.00,VWS V14.01,2013-03-22 03:23:00,
2013-03-21 23:28:00,24.2,16.8,30.07,SW,230,1.5,1.5,73,0.00,,,0.00,VWS V14.01,2013-03-22 03:28:00,
2013-03-21 23:33:00,23.6,16.2,30.07,SW,230,1.5,1.5,73,0.00,,,0.00,VWS V14.01,2013-03-22 03:33:00,
2013-03-21 23:38:00,23.0,16.3,30.07,SW,230,1.5,1.5,75,0.00,,,0.00,VWS V14.01,2013-03-22 03:38:00,
2013-03-21 23:43:00,22.3,16.2,30.07,SW,230,1.5,1.5,77,0.00,,,0.00,VWS V14.01,2013-03-22 03:43:00,
2013-03-21 23:48:00,21.9,16.7,30.07,SW,230,1.5,1.5,80,0.00,,,0.00,VWS V14.01,2013-03-22 03:48:00,
2013-03-21 23:53:00,22.0,17.6,30.07,SW,230,1.5,1.5,83,0.00,,,0.00,VWS V14.01,2013-03-22 03:53:00,
2013-03-21 23:58:00,21.9,17.0,30.07,SW,230,1.5,1.5,81,0.00,,,0.00,VWS V14.01,2013-03-22 03:58:00,